DW3695 Weather Reports


time (UTC)temp
C
wind
direction
speed
KPH
gust
KPH
rain 1hr
cm
rain 24hr
cm
rain mn
cm
humidity
%
barometer
mb
20260507204924 12 304 0.0 4.8 0.00 0.03 0.03 78 1012.2
20260507204409 12 304 1.6 4.8 0.00 0.03 0.03 78 1012.1
20260507203907 13 291 4.8 16.1 0.00 0.03 0.03 78 1012.1
20260507203408 13 266 6.4 16.1 0.00 0.03 0.03 77 1012.0
20260507202905 13 298 9.7 14.5 0.00 0.03 0.03 77 1011.9
20260507202406 13 277 11.3 16.1 0.00 0.03 0.03 76 1011.8
20260507201906 13 295 8.0 16.1 0.00 0.03 0.03 76 1011.8
20260507201403 13 327 6.4 14.5 0.00 0.03 0.03 76 1011.8
20260507200902 13 273 9.7 16.1 0.00 0.03 0.03 75 1011.8
20260507200404 13 310 11.3 16.1 0.00 0.03 0.03 75 1011.7
20260507195902 13 281 9.7 16.1 0.00 0.03 0.03 74 1011.7
20260507195402 13 274 11.3 16.1 0.00 0.03 0.03 74 1011.6
20260507194902 14 280 6.4 11.3 0.00 0.03 0.03 73 1011.6
20260507194417 14 300 6.4 14.5 0.00 0.03 0.03 73 1011.4
20260507193902 14 281 8.0 16.1 0.00 0.03 0.03 73 1011.4
20260507193402 14 249 9.7 17.7 0.00 0.03 0.03 73 1011.4
20260507192902 14 270 11.3 19.3 0.00 0.03 0.03 73 1011.3
20260507192403 14 240 14.5 19.3 0.00 0.03 0.03 72 1011.3
20260507191902 14 288 6.4 16.1 0.00 0.03 0.03 72 1011.3
20260507191404 14 283 8.0 16.1 0.00 0.03 0.03 71 1011.2
20260507190902 15 264 8.0 19.3 0.00 0.03 0.03 71 1011.3
20260507190401 15 300 12.9 19.3 0.00 0.03 0.03 70 1011.2
20260507190203 15 307 6.4 17.7 0.00 0.03 0.03 70 1011.0
20260507185402 15 291 11.3 17.7 0.00 0.03 0.03 69 1011.0
20260507184903 15 301 8.0 14.5 0.00 0.03 0.03 69 1011.0
20260507184404 15 310 9.7 14.5 0.00 0.03 0.03 68 1010.9
20260507183902 15 303 3.2 14.5 0.00 0.03 0.03 68 1011.1
20260507183403 15 310 6.4 14.5 0.00 0.03 0.03 67 1011.1
20260507182903 15 307 9.7 16.1 0.00 0.03 0.03 67 1011.2
20260507182404 15 316 8.0 16.1 0.00 0.03 0.03 66 1011.1
20260507181905 16 297 9.7 16.1 0.00 0.03 0.03 66 1011.2
20260507181403 16 311 8.0 14.5 0.00 0.03 0.03 66 1011.1
20260507180902 16 327 9.7 14.5 0.00 0.03 0.03 65 1011.0
20260507180402 16 310 6.4 9.7 0.00 0.03 0.03 64 1011.1
20260507175902 16 303 8.0 14.5 0.00 0.03 0.03 64 1011.1
20260507175401 16 310 6.4 14.5 0.00 0.03 0.03 64 1011.0
20260507174900 16 344 3.2 11.3 0.00 0.03 0.03 63 1011.0
20260507174631 16 328 1.6 11.3 0.00 0.03 0.03 61 1010.9
20260507173854 16 288 8.0 16.1 0.00 0.03 0.03 60 1010.9
20260507173354 16 260 12.9 16.1 0.00 0.03 0.03 60 1010.9
20260507173146 16 280 9.7 20.9 0.00 0.03 0.03 59 1010.8
20260507172629 16 264 14.5 20.9 0.00 0.03 0.03 59 1010.7
20260507171854 16 239 12.9 19.3 0.00 0.03 0.03 60 1010.6
20260507171351 16 235 9.7 17.7 0.00 0.03 0.03 59 1010.7
20260507170852 16 202 11.3 19.3 0.00 0.03 0.03 59 1010.6
20260507170349 16 290 9.7 20.9 0.00 0.03 0.03 59 1010.6
20260507165847 16 270 11.3 20.9 0.00 0.03 0.03 58 1010.6
20260507165622 16 250 12.9 19.3 0.00 0.03 0.03 59 1010.6
20260507164845 16 224 8.0 14.5 0.00 0.03 0.03 60 1010.7
20260507164338 16 252 9.7 16.1 0.00 0.03 0.03 60 1010.6
20260507163839 16 214 9.7 16.1 0.00 0.03 0.03 61 1010.6
20260507163338 16 204 6.4 14.5 0.00 0.03 0.03 62 1010.6
20260507162835 16 235 9.7 16.1 0.00 0.03 0.03 66 1010.6
20260507162334 16 173 11.3 16.1 0.00 0.03 0.03 65 1010.6
20260507161835 16 170 8.0 16.1 0.00 0.03 0.03 65 1010.6
20260507161332 16 218 8.0 19.3 0.00 0.03 0.03 64 1010.6
20260507160833 16 181 14.5 19.3 0.00 0.03 0.03 64 1010.6
20260507160331 16 208 8.0 14.5 0.00 0.03 0.03 67 1010.6
20260507155831 16 181 8.0 14.5 0.00 0.03 0.03 66 1010.6
20260507155329 17 225 8.0 16.1 0.00 0.03 0.03 64 1010.6
20260507154831 16 177 9.7 16.1 0.00 0.03 0.03 64 1010.6
20260507154330 17 197 8.0 11.3 0.00 0.03 0.03 62 1010.6
20260507154101 17 222 6.4 11.3 0.00 0.03 0.03 60 1010.6
20260507153330 17 194 6.4 14.5 0.00 0.03 0.03 56 1010.6
20260507153100 17 233 9.7 16.1 0.00 0.03 0.03 54 1010.6
20260507152330 18 236 9.7 16.1 0.00 0.03 0.03 54 1010.6
20260507151829 18 264 11.3 19.3 0.00 0.03 0.03 53 1010.7
20260507151559 18 284 11.3 19.3 0.00 0.03 0.03 53 1010.6
20260507150826 18 290 11.3 16.1 0.00 0.03 0.03 58 1010.6
20260507150553 18 284 3.2 14.5 0.00 0.03 0.03 56 1010.6
20260507145822 17 304 6.4 16.1 0.00 0.03 0.03 57 1010.7
20260507145321 17 243 9.7 16.1 0.00 0.03 0.03 56 1010.8
20260507144822 17 209 8.0 11.3 0.00 0.03 0.03 57 1010.7
20260507144552 17 209 4.8 14.5 0.00 0.03 0.03 58 1010.8
20260507143821 17 180 6.4 16.1 0.00 0.03 0.03 58 1010.7
20260507143321 17 245 9.7 17.7 0.00 0.03 0.03 59 1010.8
20260507142820 17 221 14.5 17.7 0.00 0.03 0.03 60 1010.9
20260507142319 17 170 8.0 17.7 0.00 0.03 0.03 59 1010.8
20260507141818 18 235 12.9 17.7 0.00 0.03 0.03 61 1010.9
20260507141319 17 231 12.9 17.7 0.00 0.03 0.03 62 1010.8
20260507140815 16 184 9.7 16.1 0.00 0.03 0.03 63 1010.8
20260507140315 16 185 8.0 14.5 0.00 0.03 0.03 60 1010.9
20260507135816 16 143 6.4 16.1 0.00 0.03 0.03 60 1011.0
20260507135315 17 208 11.3 16.1 0.00 0.03 0.03 59 1011.0
20260507134814 17 66 4.8 11.3 0.00 0.03 0.03 57 1011.0
20260507134315 18 304 8.0 14.5 0.00 0.03 0.03 57 1011.0
20260507133812 17 283 6.4 16.1 0.00 0.03 0.03 59 1011.1
20260507133310 17 145 9.7 16.1 0.00 0.03 0.03 62 1011.1
20260507132810 16 201 9.7 14.5 0.00 0.03 0.03 62 1011.2
20260507132539 16 233 4.8 14.5 0.00 0.03 0.03 64 1011.3
20260507131810 16 207 9.7 14.5 0.00 0.03 0.03 63 1011.4
20260507131307 16 156 3.2 16.1 0.00 0.03 0.03 64 1011.3
20260507130806 16 201 11.3 16.1 0.00 0.03 0.03 63 1011.3
20260507130305 16 195 8.0 14.5 0.00 0.03 0.03 63 1011.4
20260507125805 16 231 8.0 11.3 0.00 0.03 0.03 60 1011.4
20260507125307 16 187 8.0 11.3 0.00 0.03 0.03 59 1011.4
20260507124803 16 184 4.8 11.3 0.00 0.03 0.03 61 1011.3
20260507124303 15 246 9.7 17.7 0.00 0.03 0.03 61 1011.4
20260507123802 16 205 11.3 17.7 0.00 0.03 0.03 63 1011.4
20260507123302 16 286 12.9 17.7 0.00 0.03 0.03 64 1011.4
20260507123038 16 215 9.7 17.7 0.00 0.03 0.03 62 1011.4
20260507122307 16 214 9.7 17.7 0.00 0.03 0.03 63 1011.6
20260507121802 16 274 9.7 17.7 0.00 0.03 0.03 64 1011.4
20260507121302 16 256 11.3 17.7 0.00 0.03 0.03 63 1011.6
20260507120803 16 253 14.5 17.7 0.00 0.03 0.03 63 1011.6
20260507115803 15 288 8.0 19.3 0.00 0.03 0.03 65 1011.6
20260507115306 15 238 11.3 20.9 0.00 0.03 0.03 66 1011.6
20260507115036 16 291 9.7 20.9 0.00 0.03 0.03 67 1011.6
20260507114301 16 307 9.7 19.3 0.00 0.03 0.03 66 1011.4
20260507114032 16 273 6.4 24.1 0.00 0.03 0.03 70 1011.4
20260507113259 16 229 12.9 24.1 0.00 0.03 0.03 68 1011.6
20260507112800 16 215 4.8 14.5 0.00 0.03 0.03 64 1011.6
20260507112259 16 264 8.0 16.1 0.00 0.03 0.03 66 1011.6
20260507111759 15 236 8.0 16.1 0.00 0.03 0.03 68 1011.6
20260507111259 15 260 12.9 16.1 0.00 0.03 0.03 69 1011.6
20260507110800 15 281 11.3 19.3 0.00 0.03 0.03 66 1011.7
20260507110300 16 248 11.3 19.3 0.00 0.03 0.03 67 1011.6
20260507105754 16 226 12.9 19.3 0.00 0.03 0.03 63 1011.6
20260507105255 16 279 11.3 16.1 0.00 0.03 0.03 65 1011.7
20260507105049 15 334 6.4 17.7 0.00 0.03 0.03 68 1011.7
20260507104253 15 222 9.7 17.7 0.00 0.03 0.03 68 1011.7
20260507103752 15 243 9.7 17.7 0.00 0.03 0.03 69 1011.8
20260507103525 15 259 12.9 17.7 0.00 0.03 0.03 67 1011.8
20260507103027 15 307 1.6 14.5 0.00 0.03 0.03 69 1011.8
20260507102254 15 256 6.4 14.5 0.00 0.05 0.03 68 1011.9
20260507101753 15 298 9.7 14.5 0.00 0.05 0.03 73 1011.8
20260507101528 15 297 8.0 14.5 0.00 0.05 0.03 70 1011.9
20260507100753 14 276 8.0 14.5 0.00 0.05 0.03 70 1011.9
20260507100309 14 193 9.7 14.5 0.00 0.05 0.03 72 1012.0
20260507095753 14 307 6.4 16.1 0.00 0.05 0.03 71 1012.0
20260507095253 15 216 11.3 16.1 0.00 0.05 0.03 69 1012.0
20260507094753 15 310 4.8 16.1 0.00 0.05 0.03 69 1011.9
20260507094253 15 347 6.4 16.1 0.00 0.05 0.03 71 1012.0
20260507093753 15 288 8.0 11.3 0.00 0.05 0.03 73 1012.0
20260507093247 14 341 6.4 16.1 0.00 0.05 0.03 73 1011.9
20260507093022 15 288 8.0 16.1 0.00 0.05 0.03 72 1012.0
20260507092245 14 327 4.8 14.5 0.00 0.05 0.03 73 1012.0
20260507092027 14 4 4.8 17.7 0.00 0.05 0.03 76 1012.0
20260507091244 13 307 6.4 17.7 0.00 0.05 0.03 78 1012.0
20260507090743 13 277 6.4 17.7 0.00 0.05 0.03 76 1012.0
20260507090245 13 212 11.3 17.7 0.00 0.05 0.03 76 1012.0
20260507085742 13 310 14.5 17.7 0.00 0.05 0.03 79 1012.0
20260507085236 13 226 11.3 17.7 0.00 0.05 0.03 76 1012.0
20260507084735 13 330 11.3 19.3 0.00 0.05 0.03 76 1011.9
20260507084235 13 310 14.5 19.3 0.00 0.05 0.03 76 1011.9
20260507083735 13 229 8.0 17.7 0.00 0.05 0.03 76 1011.9
20260507083235 13 260 11.3 17.7 0.00 0.05 0.03 77 1011.8
20260507082735 13 307 14.5 17.7 0.00 0.05 0.03 79 1011.8
20260507082235 12 264 11.3 17.7 0.00 0.05 0.03 80 1011.8
20260507081734 12 304 6.4 20.9 0.00 0.05 0.03 82 1011.9
20260507081453 12 267 9.7 20.9 0.00 0.05 0.03 83 1012.0
20260507080959 12 286 8.0 11.3 0.00 0.05 0.03 85 1011.9
20260507080234 12 301 6.4 9.7 0.00 0.05 0.03 86 1011.9
20260507075730 11 277 8.0 9.7 0.00 0.05 0.03 86 1011.9
20260507075229 11 279 4.8 9.7 0.00 0.05 0.03 86 1011.9
20260507074729 11 266 1.6 6.4 0.00 0.05 0.03 88 1011.9
20260507074229 11 281 3.2 8.0 0.00 0.05 0.03 88 1011.9
20260507073731 11 307 4.8 8.0 0.00 0.05 0.03 90 1011.9
20260507073229 11 281 1.6 6.4 0.00 0.05 0.03 91 1011.9
20260507072728 11 310 1.6 6.4 0.00 0.05 0.03 91 1011.9
20260507071729 10 310 1.6 4.8 0.00 0.05 0.03 93 1011.9
20260507071221 10 310 0.0 4.8 0.00 0.05 0.03 92 1011.8
20260507070718 10 310 3.2 4.8 0.00 0.05 0.03 93 1011.9
20260507070219 10 310 3.2 4.8 0.00 0.05 0.03 93 1011.7
20260507065716 10 310 0.0 4.8 0.00 0.05 0.03 93 1011.8
20260507065214 10 310 1.6 8.0 0.00 0.05 0.03 93 1011.7
20260507064713 10 295 3.2 8.0 0.00 0.05 0.03 93 1011.8
20260507064213 10 270 3.2 8.0 0.00 0.05 0.03 93 1011.8
20260507063930 10 204 3.2 4.8 0.00 0.05 0.03 94 1011.8
20260507063224 10 204 0.0 1.6 0.00 0.05 0.03 94 1011.7
20260507062931 10 204 0.0 0.0 0.00 0.05 0.03 94 1011.7
20260507062204 9 204 0.0 4.8 0.00 0.05 0.03 94 1011.6
20260507061705 9 204 0.0 6.4 0.00 0.05 0.03 94 1011.7
20260507061425 9 204 4.8 8.0 0.00 0.05 0.03 94 1011.6
20260507060704 9 204 4.8 8.0 0.00 0.05 0.03 94 1011.3
20260507060203 9 191 4.8 6.4 0.00 0.05 0.03 94 1011.3
20260507055705 9 169 3.2 4.8 0.00 0.05 0.03 94 1011.3
20260507055203 9 169 1.6 4.8 0.00 0.05 0.03 94 1011.3
20260507054922 9 169 3.2 4.8 0.00 0.05 0.03 94 1011.3
20260507054202 9 271 0.0 3.2 0.00 0.05 0.03 94 1011.3
20260507053702 9 271 0.0 3.2 0.00 0.05 0.03 94 1011.3
20260507053431 9 271 0.0 0.0 0.00 0.05 0.03 94 1011.2
20260507052702 9 271 0.0 0.0 0.00 0.05 0.03 94 1011.0
20260507052204 9 271 0.0 4.8 0.00 0.05 0.03 94 1011.1
20260507051701 9 271 0.0 8.0 0.00 0.05 0.03 94 1011.1
20260507051203 9 271 6.4 8.0 0.00 0.05 0.03 94 1011.0
20260507050702 9 248 4.8 8.0 0.00 0.05 0.03 94 1010.9
20260507050204 8 277 0.0 6.4 0.00 0.05 0.03 94 1010.8
20260507045921 8 277 3.2 6.4 0.00 0.05 0.03 94 1010.8
20260507045159 8 215 3.2 4.8 0.00 0.05 0.03 94 1010.8
20260507044658 8 215 3.2 3.2 0.00 0.05 0.03 94 1010.7
20260507044157 8 215 0.0 1.6 0.00 0.05 0.03 94 1010.7
20260507043914 8 215 0.0 6.4 0.00 0.05 0.03 94 1010.7
20260507043155 8 215 3.2 6.4 0.00 0.05 0.03 94 1010.6
20260507042653 8 214 4.8 4.8 0.00 0.05 0.03 94 1010.6
20260507042153 8 139 0.0 0.0 0.00 0.05 0.03 94 1010.4
20260507041653 8 139 0.0 0.0 0.00 0.05 0.03 94 1010.4
20260507041150 8 139 0.0 0.0 0.00 0.05 0.03 94 1010.4
20260507040650 8 139 0.0 0.0 0.00 0.05 0.03 94 1010.4
20260507040149 8 139 0.0 4.8 0.00 0.05 0.03 94 1010.4
20260507035642 8 139 3.2 4.8 0.00 0.05 0.03 94 1010.4
20260507035142 8 180 1.6 4.8 0.00 0.05 0.03 94 1010.4
20260507034644 8 190 3.2 4.8 0.00 0.05 0.03 94 1010.4
20260507034142 8 190 4.8 4.8 0.00 0.05 0.03 94 1010.4
20260507033642 8 74 1.6 6.4 0.00 0.05 0.03 94 1010.4
20260507033139 8 74 1.6 6.4 0.00 0.05 0.03 94 1010.3
20260507032639 8 74 3.2 6.4 0.00 0.05 0.03 94 1010.3
20260507032136 8 74 0.0 0.0 0.00 0.05 0.03 94 1010.3
20260507031638 8 74 0.0 1.6 0.00 0.05 0.03 94 1010.3
20260507031134 8 74 0.0 4.8 0.00 0.05 0.03 94 1010.4
20260507030134 8 74 3.2 6.4 0.00 0.05 0.03 94 1010.2
20260507025633 8 74 4.8 6.4 0.00 0.05 0.03 94 1010.3
20260507024645 8 74 4.8 4.8 0.00 0.05 0.03 94 1010.3
20260507023631 9 73 0.0 0.0 0.00 0.05 0.03 94 1010.2
20260507023131 9 73 0.0 3.2 0.03 0.05 0.03 94 1010.1
20260507022630 9 73 1.6 3.2 0.03 0.05 0.03 94 1010.2
20260507022131 9 73 1.6 4.8 0.03 0.05 0.03 94 1010.1
20260507021631 9 73 3.2 4.8 0.03 0.05 0.03 94 1010.2
20260507021130 9 180 1.6 6.4 0.03 0.05 0.03 94 1010.2
20260507020630 9 180 3.2 6.4 0.03 0.05 0.03 94 1010.3
20260507020350 9 209 4.8 8.0 0.03 0.05 0.03 94 1010.3
20260507015630 9 190 4.8 8.0 0.03 0.03 0.03 94 1010.2
20260507015131 9 187 6.4 9.7 0.03 0.03 0.03 94 1010.2
20260507014850 9 193 8.0 9.7 0.03 0.03 0.03 94 1010.1
20260507014133 9 170 4.8 4.8 0.03 0.03 0.03 94 1009.9
20260507013631 9 170 3.2 4.8 0.03 0.03 0.03 94 1009.9
20260507013131 9 170 3.2 8.0 0.00 0.03 0.00 94 1009.8
20260507012631 9 87 4.8 9.7 0.00 0.03 0.00 94 1009.8
20260507012130 9 16 6.4 11.3 0.00 0.03 0.00 94 1009.7
20260507011631 9 42 6.4 11.3 0.00 0.03 0.00 94 1009.8
20260507011131 8 16 8.0 9.7 0.00 0.05 0.00 93 1010.0
20260507010629 8 235 0.0 4.8 0.00 0.05 0.00 93 1010.1
20260507010359 8 235 1.6 4.8 0.00 0.05 0.00 93 1010.1
20260507005622 8 235 0.0 3.2 0.00 0.05 0.00 93 1010.1
20260507005121 8 235 0.0 6.4 0.00 0.05 0.00 93 1010.1
20260507004855 8 235 3.2 6.4 0.00 0.05 0.00 93 1010.1
20260507004123 8 235 6.4 6.4 0.00 0.05 0.00 93 1010.1
20260507003621 8 235 4.8 6.4 0.00 0.05 0.00 93 1010.0
20260507003342 8 235 4.8 6.4 0.00 0.05 0.00 93 1010.0
20260507002617 8 200 1.6 3.2 0.00 0.05 0.00 93 1009.9
20260507002118 8 200 0.0 6.4 0.00 0.05 0.00 93 1009.9
20260507001852 8 200 0.0 8.0 0.00 0.05 0.00 93 1009.8
20260507001116 8 224 4.8 8.0 0.00 0.05 0.00 93 1009.9
20260507000616 8 193 4.8 8.0 0.00 0.05 0.00 93 1009.9
20260507000114 9 166 4.8 8.0 0.00 0.05 0.00 93 1009.8
20260506235613 9 147 6.4 8.0 0.00 0.05 0.00 93 1009.9
20260506235114 9 112 4.8 4.8 0.00 0.05 0.00 93 1009.8
20260506234833 9 30 4.8 4.8 0.00 0.05 0.00 93 1009.7
20260506234111 9 290 0.0 6.4 0.00 0.05 0.00 93 1009.8
20260506233610 9 290 0.0 6.4 0.00 0.05 0.00 93 1009.9
20260506233109 9 270 4.8 8.0 0.00 0.05 0.00 93 1010.0
20260506232607 9 245 3.2 8.0 0.00 0.05 0.00 93 1010.1
20260506232109 9 245 4.8 11.3 0.00 0.05 0.00 92 1010.1
20260506231608 8 215 9.7 11.3 0.00 0.05 0.00 92 1010.1
20260506231108 8 337 0.0 11.3 0.00 0.05 0.00 92 1010.0
20260506230607 8 263 4.8 11.3 0.00 0.05 0.00 93 1010.0
20260506230333 8 238 9.7 11.3 0.00 0.05 0.00 93 1010.0
20260506225603 8 8 0.0 9.7 0.00 0.05 0.00 93 1009.9
20260506225102 8 8 9.7 9.7 0.00 0.05 0.00 93 1009.7
20260506224602 8 310 3.2 8.0 0.00 0.05 0.00 92 1009.9
20260506224102 8 280 4.8 8.0 0.00 0.05 0.00 92 1010.0
20260506223559 8 257 6.4 8.0 0.00 0.05 0.00 93 1009.9
20260506223058 8 257 3.2 8.0 0.00 0.05 0.00 93 1009.8
20260506222559 8 257 4.8 8.0 0.00 0.05 0.00 93 1009.8
20260506222057 8 226 4.8 6.4 0.00 0.05 0.00 92 1009.8
20260506221553 8 135 3.2 4.8 0.00 0.05 0.00 92 1009.7
20260506221052 9 135 0.0 1.6 0.00 0.05 0.00 93 1009.7
20260506220553 9 135 0.0 1.6 0.00 0.05 0.00 92 1009.5
20260506220053 9 135 0.0 3.2 0.00 0.05 0.00 92 1009.7
20260506215553 9 135 0.0 4.8 0.00 0.05 0.05 92 1009.5
20260506215053 9 135 1.6 4.8 0.00 0.05 0.05 92 1009.5
20260506214553 9 159 3.2 4.8 0.00 0.05 0.05 93 1009.5
20260506214052 9 159 3.2 4.8 0.00 0.05 0.05 93 1009.4
20260506213815 9 159 3.2 4.8 0.00 0.05 0.05 93 1009.4
20260506213052 9 135 3.2 6.4 0.00 0.05 0.05 93 1009.2
20260506212552 9 135 0.0 9.7 0.00 0.05 0.05 93 1009.2
20260506212052 9 75 6.4 9.7 0.00 0.05 0.05 93 1009.2
20260506211605 9 53 4.8 8.0 0.00 0.05 0.05 92 1009.2
20260506211052 9 19 1.6 8.0 0.00 0.05 0.05 92 1009.2
20260506210812 9 22 1.6 6.4 0.00 0.05 0.05 92 1009.2
20260506210058 9 12 1.6 8.0 0.00 0.05 0.05 92 1009.2
20260506205552 9 11 3.2 9.7 0.00 0.05 0.05 92 1009.2